Regional Weather Roundup
Issued by NWS

Home | Current Version | Previous Version | Graphics & Text | Print | Product List | Glossary On
Versions: 1 2 3 4 5 6 7 8 9 10 11 12 13 14 15 16 17 18 19 20 21 22 23 24 25 26 27 28 29 30 31
000
ASUS45 KGTF 180910
RWRMT
MONTANA HOURLY WEATHER ROUNDUP
NATIONAL WEATHER SERVICE GREAT FALLS MT
300 AM MDT SAT APR 18 2015

NOTE: "FAIR" INDICATES FEW OR NO CLOUDS BELOW 12000 FEET WITH NO
SIGNIFICANT WEATHER AND/OR OBSTRUCTIONS TO VISIBILITY.

MTZ001>007-043-181000-
WEST OF THE DIVIDE

CITY           SKY/WX    TMP DP  RH WIND       PRES   REMARKS
KALISPELL      SUNNY     36  32  85 N5        30.06R
MISSOULA       CLEAR     42  31  64 CALM      30.12R
BUTTE          CLEAR     32  26  78 SE6       30.12S WCI  26
DEER LODGE       N/A     39  27  60 CALM      30.14S
EUREKA           N/A     41  34  75 N5        30.08R
HAMILTON         N/A     45  28  53 S6        30.11S
LIBBY            N/A     43  34  70 W3        30.08R
$$

MTZ008-052>055-181000-
SOUTHWEST MONTANA

CITY           SKY/WX    TMP DP  RH WIND       PRES   REMARKS
BOZEMAN        CLEAR     34  25  69 S8        30.07S WCI  27
DILLON         CLEAR     35  26  69 S9        30.08S WCI  28
$$

MTZ009-010-012-014-046-048-049-054-181000-
EAST SLOPES AND CENTRAL MONTANA

CITY           SKY/WX    TMP DP  RH WIND       PRES   REMARKS
CUT BANK       CLEAR     40  28  62 NE7       30.04R
GREAT FALLS    PTCLDY    44  28  53 SW10      30.02R
MALMSTROM AFB  MOCLDY    46  31  56 N13       30.03R
HELENA         CLEAR     46  26  45 VRB3      30.05S
$$

MTZ011-013-016-021-045-047-050-051-181000-
NORTH CENTRAL MONTANA

CITY           SKY/WX    TMP DP  RH WIND       PRES   REMARKS
HAVRE          MOCLDY    48  33  56 NW9       29.95R
LEWISTOWN      MOCLDY    39  30  70 W5        29.99S
FORT BENTON      N/A     45  32  61 S7        30.01R
$$

MTZ017>020-022>042-056>058-061-062-181000-
EASTERN PLAINS

CITY           SKY/WX    TMP DP  RH WIND       PRES   REMARKS
BAKER          CLEAR     37  29  72 SE5       30.03F
BILLINGS       CLEAR     43  33  68 SW14      29.98F
GLASGOW        CLEAR     42  29  59 E13       29.94F
JORDAN           N/A     46  30  53 CALM      29.95F
LIVINGSTON     CLEAR     32  22  66 CALM      30.04F
MILES CITY     CLEAR     45  31  58 S8        29.99S
SIDNEY         CLEAR     46  28  49 CALM      30.02F
WOLF POINT     CLEAR     40  28  62 NE5       29.97F
BIG TIMBER       N/A     41  23  48 W10       30.02F
FORSYTH          N/A     46  34  61 CALM      29.97F
PLENTYWOOD       N/A     45  27  49 SE10      29.99F
POPLAR           N/A     41  28  60 CALM      29.98F
$$

REGIONAL REPORTS...DAKOTAS

CITY           SKY/WX    TMP DP  RH WIND       PRES   REMARKS
WILLISTON      CLEAR     48  25  40 SE6       30.03F
MINOT          CLEAR     37  26  64 E7        30.09F WCI  32
DICKINSON      CLEAR     42  26  53 SE12      30.02F
BEACH          FAIR      36  25  64 SE3       30.03F
CROSBY         FAIR      43  27  52 SE12      30.03F
WATFORD CITY   FAIR      39  25  56 N5        30.03S
BISMARCK       CLEAR     35  26  69 E3        30.09F
GRAND FORKS    CLEAR     30  25  81 CALM      30.16S
FARGO          CLEAR     42  24  49 NE10      30.10F
BUFFALO SD       N/A     44  32  62 S8        29.99S
RAPID CITY     CLOUDY    48  45  89 NW6       30.04F
$$

REGIONAL REPORTS...WYOMING/IDAHO/WASHINGTON

CITY           SKY/WX    TMP DP  RH WIND       PRES   REMARKS
GILLETTE       CLOUDY    44  39  82 S12       30.03F
SHERIDAN       PTCLDY    35  30  82 CALM      29.99F
BUFFALO WY     PTCLDY    42  34  73 S9        30.02F
CODY           PTCLDY    39  28  65 SW3       30.02F
YELLOWSTONE LA   N/A     25  20  81 CALM      30.14F
IDAHO FALLS    CLEAR     40  29  64 SW6       30.04F
SALMON         CLEAR     39  25  56 SE6       30.10S
BOISE          CLEAR     47  33  58 CALM      30.05S
SPOKANE        CLEAR     49  32  52 NW7       30.13R
$$

REGIONAL REPORTS...ALBERTA

CITY           SKY/WX    TMP DP  RH WIND       PRES   REMARKS
EDMONTON       CLEAR     37  30  75 W13G22    30.07R WCI  29
CALGARY        LGT RAIN  37  34  87 N20G26    30.15R FOG     WCI  27
LETHBRIDGE     MOCLDY    48  32  53 W17       30.08R
MEDICINE HAT   CLEAR     45  37  76 NW9       29.99S
$$

REGIONAL REPORTS...SASKATCHEWAN

CITY           SKY/WX    TMP DP  RH WIND       PRES   REMARKS
SWIFT CURRENT  CLOUDY    55  28  35 W13       29.88S
REGINA         PTCLDY    45  30  57 SE21G28   29.95F
SASKATOON      LGT RAIN  48  34  57 W9        29.87R
$$



USA.gov is the U.S. government's official web portal to all federal, state and local government web resources and services.